EW3585 Weather Reports


time (UTC)temp
C
wind
direction
speed
KPH
gust
KPH
rain 1hr
cm
rain 24hr
cm
rain mn
cm
humidity
%
barometer
mb
20260504081700 10 250 3.2 4.8 0.00 0.00 0.00 78 1018.7
20260504081023 10 263 1.6 6.4 0.00 0.00 0.00 78 1018.6
20260504080524 10 263 1.6 6.4 0.00 0.00 0.00 80 1018.5
20260504080124 11 311 1.6 4.8 0.00 0.00 0.00 79 1018.6
20260504070243 11 312 3.2 4.8 0.00 0.00 0.00 77 1018.7
20260504060122 12 314 1.6 6.4 0.00 0.03 0.00 73 1019.0
20260504050534 13 270 1.6 6.4 0.00 0.03 0.00 63 1019.0
20260504050237 13 275 1.6 8.0 0.00 0.03 0.00 62 1018.9
20260504045527 13 265 3.2 11.3 0.00 0.03 0.00 62 1018.8
20260504045040 13 273 3.2 11.3 0.00 0.03 0.00 62 1018.9
20260504044721 13 265 3.2 11.3 0.00 0.03 0.00 62 1018.7
20260504044030 13 235 1.6 6.4 0.00 0.03 0.00 62 1018.8
20260504043531 14 250 1.6 8.0 0.00 0.03 0.00 62 1018.6
20260504043208 14 230 1.6 8.0 0.00 0.03 0.00 62 1018.6
20260504042541 14 310 3.2 11.3 0.00 0.03 0.00 60 1018.8
20260504042040 15 276 4.8 16.1 0.00 0.03 0.00 59 1018.7
20260504041718 15 261 6.4 16.1 0.00 0.03 0.00 60 1019.0
20260504041041 15 298 4.8 12.9 0.00 0.03 0.00 60 1018.9
20260504040539 15 277 4.8 11.3 0.00 0.03 0.00 59 1018.9
20260504040211 15 304 1.6 12.9 0.00 0.03 0.00 59 1019.0
20260504035538 15 295 4.8 12.9 0.00 0.03 0.03 58 1018.9
20260504035026 15 275 6.4 12.9 0.00 0.03 0.03 58 1019.0
20260504034715 15 296 3.2 11.3 0.00 0.03 0.03 57 1018.9
20260504034034 15 273 3.2 11.3 0.00 0.03 0.03 57 1018.9
20260504033534 15 304 4.8 19.3 0.00 0.03 0.03 57 1018.9
20260504033155 15 274 4.8 19.3 0.00 0.03 0.03 56 1018.7
20260504032538 16 261 6.4 19.3 0.00 0.03 0.03 56 1018.8
20260504032039 16 291 6.4 19.3 0.00 0.03 0.03 56 1018.8
20260504031715 16 309 9.7 19.3 0.00 0.03 0.03 56 1018.8
20260504031025 16 294 9.7 17.7 0.00 0.03 0.03 56 1018.8
20260504030524 16 298 8.0 16.1 0.00 0.03 0.03 55 1018.9
20260504030226 16 295 4.8 14.5 0.00 0.03 0.03 57 1018.6
20260504025531 16 290 4.8 14.5 0.00 0.03 0.03 56 1018.8
20260504025025 16 231 4.8 12.9 0.00 0.03 0.03 57 1018.6
20260504024712 16 303 4.8 12.9 0.00 0.03 0.03 56 1018.7
20260504024037 15 309 3.2 8.0 0.00 0.03 0.03 57 1018.6
20260504023518 15 279 3.2 9.7 0.00 0.03 0.03 57 1018.8
20260504023209 15 289 1.6 9.7 0.00 0.03 0.03 57 1018.6
20260504022533 15 269 3.2 8.0 0.00 0.03 0.03 58 1018.5
20260504022040 15 287 3.2 8.0 0.00 0.03 0.03 61 1018.4
20260504021637 15 291 3.2 8.0 0.00 0.03 0.03 59 1018.5
20260504021031 16 279 0.0 3.2 0.00 0.03 0.03 61 1018.4
20260504020538 16 277 0.0 6.4 0.00 0.03 0.03 58 1018.3
20260504020207 16 277 1.6 6.4 0.00 0.03 0.03 55 1018.2
20260504015538 16 240 1.6 6.4 0.00 0.03 0.03 55 1018.3
20260504015036 16 261 1.6 6.4 0.00 0.03 0.03 55 1018.1
20260504014711 16 231 0.0 6.4 0.00 0.03 0.03 55 1017.9
20260504014042 16 259 1.6 8.0 0.00 0.03 0.03 55 1018.0
20260504013521 16 245 1.6 8.0 0.00 0.03 0.03 56 1017.9
20260504013209 16 229 1.6 8.0 0.00 0.03 0.03 56 1017.9
20260504012537 16 217 1.6 8.0 0.00 0.03 0.03 56 1017.8
20260504012041 16 216 3.2 8.0 0.00 0.03 0.03 55 1017.8
20260504011701 16 221 1.6 6.4 0.00 0.03 0.03 56 1017.7
20260504011039 16 223 1.6 4.8 0.00 0.03 0.03 56 1017.8
20260504010530 16 223 1.6 3.2 0.00 0.03 0.03 56 1017.8
20260504010217 17 223 0.0 3.2 0.00 0.03 0.03 55 1017.8
20260504005530 17 223 0.0 3.2 0.00 0.03 0.03 54 1017.7
20260504005031 17 223 1.6 4.8 0.00 0.03 0.03 53 1017.8
20260504004640 17 223 1.6 4.8 0.00 0.03 0.03 52 1017.5
20260504004040 17 214 1.6 4.8 0.00 0.03 0.03 51 1017.6
20260504003522 17 213 1.6 6.4 0.00 0.03 0.03 51 1017.5
20260504003155 17 213 1.6 4.8 0.00 0.03 0.03 50 1017.5
20260504002523 18 238 1.6 6.4 0.00 0.03 0.03 50 1017.5
20260504002029 18 238 1.6 6.4 0.00 0.03 0.03 49 1017.5
20260504001701 18 221 1.6 6.4 0.00 0.03 0.03 48 1017.4
20260504001030 18 222 3.2 6.4 0.00 0.03 0.03 48 1017.4
20260504000523 18 234 3.2 8.0 0.00 0.03 0.03 47 1017.3
20260504000153 18 236 3.2 8.0 0.00 0.03 0.03 47 1017.2
20260503235542 19 234 3.2 8.0 0.00 0.03 0.03 46 1017.3
20260503235033 19 233 3.2 8.0 0.00 0.03 0.03 46 1017.2
20260503234630 19 238 3.2 12.9 0.00 0.03 0.03 45 1017.4
20260503234025 20 225 4.8 12.9 0.00 0.03 0.03 45 1017.2
20260503233525 20 203 3.2 11.3 0.00 0.03 0.03 44 1017.4
20260503233200 20 207 3.2 12.9 0.00 0.03 0.03 44 1017.2
20260503232530 20 223 3.2 14.5 0.00 0.03 0.03 43 1017.2
20260503232025 20 236 6.4 16.1 0.00 0.03 0.03 42 1017.4
20260503231635 20 253 6.4 16.1 0.00 0.03 0.03 41 1017.3
20260503231038 20 215 6.4 16.1 0.00 0.03 0.03 41 1017.4
20260503230532 20 246 6.4 16.1 0.00 0.03 0.03 41 1017.5
20260503230241 20 234 3.2 12.9 0.00 0.03 0.03 42 1017.4
20260503225528 20 287 4.8 14.5 0.00 0.08 0.03 42 1017.5
20260503225026 20 206 6.4 14.5 0.00 0.08 0.03 41 1017.3
20260503224658 21 232 6.4 14.5 0.00 0.08 0.03 41 1017.4
20260503224027 21 206 4.8 16.1 0.00 0.08 0.03 40 1017.4
20260503223536 21 256 6.4 16.1 0.00 0.08 0.03 41 1017.4
20260503223220 21 294 4.8 12.9 0.00 0.08 0.03 41 1017.6
20260503222531 21 242 6.4 12.9 0.00 0.08 0.03 41 1017.4
20260503222036 21 249 4.8 16.1 0.00 0.08 0.03 41 1017.5
20260503221712 21 227 6.4 16.1 0.00 0.08 0.03 41 1017.6
20260503221033 21 245 6.4 14.5 0.00 0.08 0.03 43 1017.4
20260503220533 21 229 6.4 14.5 0.00 0.08 0.03 42 1017.5
20260503220214 21 233 4.8 14.5 0.00 0.08 0.03 42 1017.4
20260503215523 21 222 4.8 14.5 0.00 0.08 0.03 43 1017.7
20260503215022 21 223 4.8 14.5 0.00 0.08 0.03 43 1017.7
20260503214718 21 269 6.4 16.1 0.00 0.08 0.03 43 1017.6
20260503214047 21 246 6.4 17.7 0.00 0.08 0.03 44 1017.8
20260503213542 21 281 6.4 16.1 0.00 0.08 0.03 44 1017.9
20260503213216 21 214 6.4 12.9 0.00 0.08 0.03 44 1018.0
20260503212539 21 229 6.4 11.3 0.00 0.08 0.03 43 1018.0
20260503212028 21 289 6.4 14.5 0.00 0.08 0.03 43 1017.9
20260503211710 21 192 3.2 14.5 0.00 0.08 0.03 46 1017.9
20260503211024 21 309 6.4 12.9 0.00 0.08 0.03 41 1018.1
20260503210528 21 273 4.8 9.7 0.00 0.08 0.03 43 1018.1
20260503210208 21 235 3.2 12.9 0.00 0.08 0.03 45 1018.1
20260503205524 20 246 4.8 11.3 0.00 0.08 0.03 44 1018.3
20260503205032 20 288 6.4 14.5 0.00 0.08 0.03 42 1018.3
20260503204718 20 261 6.4 14.5 0.00 0.08 0.03 43 1018.2
20260503204027 20 286 4.8 17.7 0.00 0.08 0.03 44 1018.5
20260503203543 20 284 6.4 17.7 0.00 0.08 0.03 41 1018.4
20260503203221 20 288 3.2 17.7 0.00 0.08 0.03 44 1018.4
20260503202546 20 293 9.7 17.7 0.00 0.08 0.03 45 1018.6
20260503202040 20 277 6.4 14.5 0.00 0.08 0.03 45 1018.7
20260503201722 20 302 4.8 14.5 0.00 0.08 0.03 43 1018.9
20260503201045 20 217 6.4 14.5 0.00 0.08 0.03 43 1019.0
20260503200529 20 254 8.0 19.3 0.00 0.08 0.03 45 1019.2
20260503200159 20 305 9.7 19.3 0.00 0.08 0.03 45 1019.4
20260503195542 20 297 6.4 14.5 0.00 0.08 0.03 45 1019.4
20260503195039 20 185 4.8 14.5 0.00 0.08 0.03 45 1019.6
20260503194700 20 203 8.0 17.7 0.00 0.08 0.03 44 1019.7
20260503194026 20 212 8.0 17.7 0.00 0.08 0.03 45 1019.7
20260503193526 20 202 3.2 19.3 0.00 0.08 0.03 44 1019.7
20260503193141 19 46 3.2 19.3 0.00 0.08 0.03 46 1019.9
20260503192525 19 313 8.0 20.9 0.00 0.08 0.03 44 1020.2
20260503192027 19 346 8.0 16.1 0.00 0.08 0.03 48 1020.2
20260503191636 19 200 9.7 16.1 0.00 0.08 0.03 48 1020.2
20260503191026 19 189 4.8 12.9 0.00 0.08 0.03 45 1020.3
20260503190538 19 276 3.2 14.5 0.00 0.08 0.03 42 1020.3
20260503190155 19 302 6.4 12.9 0.00 0.08 0.03 45 1020.5
20260503185540 18 250 6.4 12.9 0.00 0.08 0.03 43 1020.3
20260503185029 18 192 4.8 11.3 0.00 0.08 0.03 45 1020.6
20260503184653 18 238 4.8 16.1 0.00 0.08 0.03 45 1020.6
20260503184021 18 22 6.4 16.1 0.00 0.08 0.03 48 1020.6
20260503183525 18 305 3.2 9.7 0.00 0.08 0.03 44 1020.8
20260503183150 18 311 4.8 9.7 0.00 0.08 0.03 44 1020.7
20260503182524 18 301 1.6 8.0 0.00 0.08 0.03 43 1020.8
20260503182034 18 351 4.8 12.9 0.00 0.08 0.03 47 1020.8
20260503181645 18 342 6.4 16.1 0.00 0.08 0.03 43 1020.8
20260503181025 18 301 8.0 17.7 0.00 0.08 0.03 46 1020.8
20260503180540 18 345 8.0 17.7 0.00 0.08 0.03 43 1020.8
20260503180154 18 294 9.7 17.7 0.00 0.08 0.03 54 1020.8
20260503175526 18 316 4.8 12.9 0.00 0.08 0.03 53 1020.9
20260503175022 17 174 1.6 9.7 0.00 0.08 0.03 53 1020.9
20260503174624 17 317 3.2 12.9 0.00 0.08 0.03 55 1020.9
20260503174030 17 310 4.8 14.5 0.00 0.08 0.03 55 1021.0
20260503173535 17 315 6.4 14.5 0.00 0.08 0.03 56 1021.1
20260503173209 17 201 1.6 14.5 0.00 0.08 0.03 57 1020.9
20260503172526 17 261 8.0 14.5 0.00 0.08 0.03 61 1021.2
20260503172039 17 265 6.4 12.9 0.00 0.08 0.03 61 1021.1
20260503171645 17 308 3.2 11.3 0.00 0.08 0.03 59 1021.3
20260503171022 17 288 3.2 12.9 0.00 0.08 0.03 56 1021.5
20260503170539 17 222 4.8 12.9 0.00 0.08 0.03 57 1021.5
20260503170136 16 289 4.8 12.9 0.00 0.08 0.03 56 1021.8
20260503160159 16 286 3.2 9.7 0.00 0.08 0.03 66 1022.4
20260503150533 14 161 3.2 8.0 0.00 0.08 0.03 69 1022.7
20260503150149 14 198 3.2 9.7 0.00 0.08 0.03 71 1022.6
20260503140158 13 88 1.6 4.8 0.00 0.08 0.03 77 1022.4
20260503131025 11 113 1.6 6.4 0.00 0.08 0.03 85 1022.2
20260503130545 11 113 1.6 6.4 0.00 0.08 0.03 86 1022.4
20260503130149 11 113 1.6 6.4 0.00 0.08 0.03 88 1022.3
20260503120148 8 55 0.0 3.2 0.00 0.08 0.03 99 1022.0
20260503110535 6 55 0.0 0.0 0.00 0.08 0.03 98 1021.1
20260503110145 6 55 0.0 0.0 0.00 0.08 0.03 97 1020.9
20260503100118 6 285 0.0 1.6 0.00 0.08 0.03 97 1020.1